OPTUS C1

Last updated on Jan. 26, 2020, 4:40 a.m. UTC

1 27831U 03028B   20025.59146632 -.00000159  00000-0  00000-0 0  9995
2 27831   1.0807  96.1881 0004776 209.7084 187.0685  1.00272326 29656
UTC
Height (km)
Latitude
Longitude
Inclination
Orbital Period
UTC large
Height (km)
Speed (km/s)
/
Latitude / Longitude
Inclination (degrees)
Orbital Period (minutes)
Azimuth
Elevation
Range (km)
Doppler Factor
iOS Compass Heading
iOS Angle

Next 30 passes for location: Hong Kong

Rise time Rise Azimuth (degrees) Set time Set Azimuth (degrees) Duration Max altitude (degrees)

No matching passes for this satellites